INTERCOSMOS 25 (21819 NORAD) Tracking and Keplerian Element Data

This shows tracking and keplerian element data for the satellite.

Feedback or suggestion? Click here.




ElementValue
Catalog21819
NameINTERCOSMOS 25
Epoch Orbit44842
Epoch Day34.93369588
Epoch Year2025
RAAN190.8054
Inclination82.6072
Eccentricity0.1494306
Argument of Perigee255.5529
Mean Anonmoly87.5639
Mean Motion12.10132739
Decay Rate2.935E-05
L11 21819U 91086A 25034.93369588 .00002935 00000+0 58511-3 0 9991
L22 21819 82.6072 190.8054 1494306 255.5529 87.5639 12.10132739448424



Live tracking and technical data element details for INTERCOSMOS 25 (NORAD 21819). INTERCOSMOS 25 can be tracked NOW for your location showing map with azimuth and elevation plus other details from your city location.







IsCatalogInMostPopularTable: catalog: 21819, numindb: 360
Update: records affected: 1



GetName: 21819 INTERCOSMOS 25

Hit Count: updated at: Thu, 15 May 2025 09:24:19 GMT